Time,TemperatureF,DewpointF,PressureIn,WindDirection,WindDirectionDegrees,WindSpeedMPH,WindSpeedGustMPH,Humidity,HourlyPrecipIn,Conditions,Clouds,dailyrainin,SolarRadiationWatts/m^2,SoftwareType,DateUTC
2013-01-17 00:02:00,34.0,28.0,-100.00,WSW,249,2.0,10.0,79,0.00,,,0.16,0.000000,,2013-01-17 07:02:00,
2013-01-17 00:12:00,34.0,28.0,-100.00,WSW,249,2.0,10.0,79,0.00,,,0.16,0.000000,,2013-01-17 07:12:00,
2013-01-17 00:22:00,34.0,28.0,-100.00,WSW,249,2.0,10.0,79,0.00,,,0.16,0.000000,,2013-01-17 07:22:00,
2013-01-17 00:53:00,35.0,30.0,-100.00,West,279,5.0,12.0,81,0.00,,,0.10,0.000000,,2013-01-17 07:53:00,
2013-01-17 01:02:00,35.0,30.0,-100.00,West,279,5.0,12.0,81,0.00,,,0.10,0.000000,,2013-01-17 08:02:00,
2013-01-17 01:12:00,35.0,30.0,-100.00,West,279,5.0,12.0,81,0.00,,,0.10,0.000000,,2013-01-17 08:12:00,
2013-01-17 01:22:00,35.0,30.0,-100.00,West,279,5.0,12.0,81,0.00,,,0.10,0.000000,,2013-01-17 08:22:00,
2013-01-17 01:53:00,34.0,28.0,-100.00,West,269,5.0,12.0,78,0.00,,,0.07,0.000000,,2013-01-17 08:53:00,
2013-01-17 02:02:00,34.0,28.0,-100.00,West,269,5.0,12.0,78,0.00,,,0.07,0.000000,,2013-01-17 09:02:00,
2013-01-17 02:12:00,34.0,28.0,-100.00,West,269,5.0,12.0,78,0.00,,,0.07,0.000000,,2013-01-17 09:12:00,
2013-01-17 02:22:00,34.0,28.0,-100.00,West,269,5.0,12.0,78,0.00,,,0.07,0.000000,,2013-01-17 09:22:00,
2013-01-17 02:52:00,34.0,29.0,-100.00,West,267,4.0,13.0,81,0.00,,,0.05,0.000000,,2013-01-17 09:52:00,
2013-01-17 03:02:00,34.0,29.0,-100.00,West,267,4.0,13.0,81,0.00,,,0.05,0.000000,,2013-01-17 10:02:00,
2013-01-17 03:12:00,34.0,29.0,-100.00,West,267,4.0,13.0,81,0.00,,,0.05,0.000000,,2013-01-17 10:12:00,
2013-01-17 03:22:00,34.0,29.0,-100.00,West,267,4.0,13.0,81,0.00,,,0.05,0.000000,,2013-01-17 10:22:00,
2013-01-17 03:53:00,33.0,28.0,-100.00,WNW,285,3.0,10.0,81,0.00,,,0.03,0.000000,,2013-01-17 10:53:00,
2013-01-17 04:02:00,33.0,28.0,-100.00,WNW,285,3.0,10.0,81,0.00,,,0.03,0.000000,,2013-01-17 11:02:00,
2013-01-17 04:12:00,33.0,28.0,-100.00,WNW,285,3.0,10.0,81,0.00,,,0.03,0.000000,,2013-01-17 11:12:00,
2013-01-17 04:22:00,33.0,28.0,-100.00,WNW,285,3.0,10.0,81,0.00,,,0.03,0.000000,,2013-01-17 11:22:00,
2013-01-17 04:53:00,33.0,29.0,-100.00,WNW,282,2.0,9.0,84,0.00,,,0.02,0.000000,,2013-01-17 11:53:00,
2013-01-17 05:02:00,33.0,29.0,-100.00,WNW,282,2.0,9.0,84,0.00,,,0.02,0.000000,,2013-01-17 12:02:00,
2013-01-17 05:12:00,33.0,29.0,-100.00,WNW,282,2.0,9.0,84,0.00,,,0.02,0.000000,,2013-01-17 12:12:00,
2013-01-17 05:22:00,33.0,29.0,-100.00,WNW,282,2.0,9.0,84,0.00,,,0.02,0.000000,,2013-01-17 12:22:00,
2013-01-17 05:43:00,34.0,31.0,-100.00,WSW,253,1.0,8.0,88,0.00,,,0.02,0.000000,,2013-01-17 12:43:00,
2013-01-17 05:53:00,34.0,31.0,-100.00,WSW,253,1.0,8.0,88,0.00,,,0.02,0.000000,,2013-01-17 12:53:00,
2013-01-17 06:03:00,34.0,31.0,-100.00,WSW,253,1.0,8.0,88,0.00,,,0.02,0.000000,,2013-01-17 13:03:00,
2013-01-17 06:12:00,34.0,31.0,-100.00,WSW,253,1.0,8.0,88,0.00,,,0.02,0.000000,,2013-01-17 13:12:00,
2013-01-17 06:22:00,34.0,31.0,-100.00,WSW,253,1.0,8.0,88,0.00,,,0.02,0.000000,,2013-01-17 13:22:00,
2013-01-17 06:43:00,31.0,29.0,-100.00,West,264,3.0,5.0,94,0.00,,,0.02,0.000000,,2013-01-17 13:43:00,
2013-01-17 06:53:00,31.0,29.0,-100.00,West,264,3.0,5.0,94,0.00,,,0.02,0.000000,,2013-01-17 13:53:00,
2013-01-17 07:03:00,31.0,29.0,-100.00,West,264,3.0,5.0,94,0.00,,,0.02,0.000000,,2013-01-17 14:03:00,
2013-01-17 07:12:00,31.0,29.0,-100.00,West,264,3.0,5.0,94,0.00,,,0.02,0.000000,,2013-01-17 14:12:00,
2013-01-17 07:23:00,31.0,29.0,-100.00,West,264,3.0,5.0,94,0.00,,,0.02,0.000000,,2013-01-17 14:23:00,
2013-01-17 07:43:00,29.0,28.0,-100.00,WSW,253,2.0,6.0,97,0.00,,,0.02,0.000000,,2013-01-17 14:43:00,
2013-01-17 07:53:00,29.0,28.0,-100.00,WSW,253,2.0,6.0,97,0.00,,,0.02,0.000000,,2013-01-17 14:53:00,
2013-01-17 08:03:00,29.0,28.0,-100.00,WSW,253,2.0,6.0,97,0.00,,,0.02,0.000000,,2013-01-17 15:03:00,
2013-01-17 08:12:00,29.0,28.0,-100.00,WSW,253,2.0,6.0,97,0.00,,,0.02,0.000000,,2013-01-17 15:12:00,
2013-01-17 08:22:00,29.0,28.0,-100.00,WSW,253,2.0,6.0,97,0.00,,,0.02,0.000000,,2013-01-17 15:22:00,
2013-01-17 08:53:00,28.0,26.0,-100.00,WSW,238,2.0,7.0,93,0.00,,,0.02,0.000000,,2013-01-17 15:53:00,
2013-01-17 09:02:00,28.0,26.0,-100.00,WSW,238,2.0,7.0,93,0.00,,,0.02,0.000000,,2013-01-17 16:02:00,
2013-01-17 09:12:00,28.0,26.0,-100.00,WSW,238,2.0,7.0,93,0.00,,,0.02,0.000000,,2013-01-17 16:12:00,
2013-01-17 09:22:00,28.0,26.0,-100.00,WSW,238,2.0,7.0,93,0.00,,,0.02,0.000000,,2013-01-17 16:22:00,
2013-01-17 09:53:00,30.0,22.0,-100.00,SSW,202,3.0,6.0,71,0.00,,,-99.99,27.000000,,2013-01-17 16:53:00,
2013-01-17 10:03:00,30.0,22.0,-100.00,SSW,202,3.0,6.0,71,0.00,,,-99.99,27.000000,,2013-01-17 17:03:00,
2013-01-17 10:12:00,30.0,22.0,-100.00,SSW,202,3.0,6.0,71,0.00,,,-99.99,27.000000,,2013-01-17 17:12:00,
2013-01-17 10:22:00,30.0,22.0,-100.00,SSW,202,3.0,6.0,71,0.00,,,-99.99,27.000000,,2013-01-17 17:22:00,
2013-01-17 10:43:00,33.0,21.0,-100.00,SSW,192,6.0,6.0,60,0.00,,,0.01,165.000000,,2013-01-17 17:43:00,
2013-01-17 10:53:00,33.0,21.0,-100.00,SSW,192,6.0,6.0,60,0.00,,,0.01,165.000000,,2013-01-17 17:53:00,
2013-01-17 11:03:00,33.0,21.0,-100.00,SSW,192,6.0,6.0,60,0.00,,,0.01,165.000000,,2013-01-17 18:03:00,
2013-01-17 11:12:00,33.0,21.0,-100.00,SSW,192,6.0,6.0,60,0.00,,,0.01,165.000000,,2013-01-17 18:12:00,
2013-01-17 11:22:00,33.0,21.0,-100.00,SSW,192,6.0,6.0,60,0.00,,,0.01,165.000000,,2013-01-17 18:22:00,
2013-01-17 11:44:00,38.0,23.0,-100.00,SSW,204,7.0,11.0,55,0.00,,,0.00,302.000000,,2013-01-17 18:44:00,
2013-01-17 11:53:00,38.0,23.0,-100.00,SSW,204,7.0,11.0,55,0.00,,,0.00,302.000000,,2013-01-17 18:53:00,
2013-01-17 12:03:00,38.0,23.0,-100.00,SSW,204,7.0,11.0,55,0.00,,,0.00,302.000000,,2013-01-17 19:03:00,
2013-01-17 12:12:00,38.0,23.0,-100.00,SSW,204,7.0,11.0,55,0.00,,,0.00,302.000000,,2013-01-17 19:12:00,
2013-01-17 12:22:00,38.0,23.0,-100.00,SSW,204,7.0,11.0,55,0.00,,,0.00,302.000000,,2013-01-17 19:22:00,
2013-01-17 12:53:00,41.0,23.0,-100.00,SW,218,5.0,15.0,48,0.00,,,0.00,414.000000,,2013-01-17 19:53:00,
2013-01-17 13:03:00,41.0,23.0,-100.00,SW,218,5.0,15.0,48,0.00,,,0.00,414.000000,,2013-01-17 20:03:00,
2013-01-17 13:12:00,41.0,23.0,-100.00,SW,218,5.0,15.0,48,0.00,,,0.00,414.000000,,2013-01-17 20:12:00,
2013-01-17 13:23:00,41.0,23.0,-100.00,SW,218,5.0,15.0,48,0.00,,,0.00,414.000000,,2013-01-17 20:23:00,
2013-01-17 13:54:00,44.0,25.0,-100.00,SW,223,6.0,13.0,46,0.00,,,0.00,466.000000,,2013-01-17 20:54:00,
2013-01-17 14:03:00,44.0,25.0,-100.00,SW,223,6.0,13.0,46,0.00,,,0.00,466.000000,,2013-01-17 21:03:00,
2013-01-17 14:13:00,44.0,25.0,-100.00,SW,223,6.0,13.0,46,0.00,,,0.00,466.000000,,2013-01-17 21:13:00,
2013-01-17 14:23:00,44.0,25.0,-100.00,SW,223,6.0,13.0,46,0.00,,,0.00,466.000000,,2013-01-17 21:23:00,
2013-01-17 14:43:00,44.0,26.0,-100.00,SW,221,5.0,13.0,48,0.00,,,0.00,437.000000,,2013-01-17 21:43:00,
2013-01-17 14:53:00,44.0,26.0,-100.00,SW,221,5.0,13.0,48,0.00,,,0.00,437.000000,,2013-01-17 21:53:00,
2013-01-17 15:03:00,44.0,26.0,-100.00,SW,221,5.0,13.0,48,0.00,,,0.00,437.000000,,2013-01-17 22:03:00,
2013-01-17 15:12:00,44.0,26.0,-100.00,SW,221,5.0,13.0,48,0.00,,,0.00,437.000000,,2013-01-17 22:12:00,
2013-01-17 15:23:00,44.0,26.0,-100.00,SW,221,5.0,13.0,48,0.00,,,0.00,437.000000,,2013-01-17 22:23:00,
2013-01-17 15:43:00,45.0,26.0,-100.00,SW,222,3.0,13.0,47,0.00,,,0.00,341.000000,,2013-01-17 22:43:00,
2013-01-17 15:53:00,45.0,26.0,-100.00,SW,222,3.0,13.0,47,0.00,,,0.00,341.000000,,2013-01-17 22:53:00,
2013-01-17 16:03:00,45.0,26.0,-100.00,SW,222,3.0,13.0,47,0.00,,,0.00,341.000000,,2013-01-17 23:03:00,
2013-01-17 16:12:00,45.0,26.0,-100.00,SW,222,3.0,13.0,47,0.00,,,0.00,341.000000,,2013-01-17 23:12:00,
2013-01-17 16:22:00,45.0,26.0,-100.00,SW,222,3.0,13.0,47,0.00,,,0.00,341.000000,,2013-01-17 23:22:00,
2013-01-17 16:53:00,44.0,31.0,-100.00,WSW,240,4.0,9.0,59,0.00,,,0.00,232.000000,,2013-01-17 23:53:00,
2013-01-17 17:03:00,44.0,31.0,-100.00,WSW,240,4.0,9.0,59,0.00,,,0.00,232.000000,,2013-01-18 00:03:00,
2013-01-17 17:12:00,44.0,31.0,-100.00,WSW,240,4.0,9.0,59,0.00,,,0.00,232.000000,,2013-01-18 00:12:00,
2013-01-17 17:23:00,44.0,31.0,-100.00,WSW,240,4.0,9.0,59,0.00,,,0.00,232.000000,,2013-01-18 00:23:00,
2013-01-17 17:53:00,39.0,27.0,-100.00,WSW,242,5.0,11.0,61,0.00,,,0.00,82.000000,,2013-01-18 00:53:00,
2013-01-17 18:03:00,39.0,27.0,-100.00,WSW,242,5.0,11.0,61,0.00,,,0.00,82.000000,,2013-01-18 01:03:00,
2013-01-17 18:12:00,39.0,27.0,-100.00,WSW,242,5.0,11.0,61,0.00,,,0.00,82.000000,,2013-01-18 01:12:00,
2013-01-17 18:23:00,39.0,27.0,-100.00,WSW,242,5.0,11.0,61,0.00,,,0.00,82.000000,,2013-01-18 01:23:00,
2013-01-17 18:43:00,35.0,23.0,-100.00,SW,232,4.0,10.0,62,0.00,,,0.00,3.000000,,2013-01-18 01:43:00,
2013-01-17 18:53:00,35.0,23.0,-100.00,SW,232,4.0,10.0,62,0.00,,,0.00,3.000000,,2013-01-18 01:53:00,
2013-01-17 19:03:00,35.0,23.0,-100.00,SW,232,4.0,10.0,62,0.00,,,0.00,3.000000,,2013-01-18 02:03:00,
2013-01-17 19:12:00,35.0,23.0,-100.00,SW,232,4.0,10.0,62,0.00,,,0.00,3.000000,,2013-01-18 02:12:00,
2013-01-17 19:22:00,35.0,23.0,-100.00,SW,232,4.0,10.0,62,0.00,,,0.00,3.000000,,2013-01-18 02:22:00,
2013-01-17 19:53:00,36.0,23.0,-100.00,SW,235,4.0,10.0,60,0.00,,,0.00,0.000000,,2013-01-18 02:53:00,
2013-01-17 20:02:00,36.0,23.0,-100.00,SW,235,4.0,10.0,60,0.00,,,0.00,0.000000,,2013-01-18 03:02:00,
2013-01-17 20:12:00,36.0,23.0,-100.00,SW,235,4.0,10.0,60,0.00,,,0.00,0.000000,,2013-01-18 03:12:00,
2013-01-17 20:22:00,36.0,23.0,-100.00,SW,235,4.0,10.0,60,0.00,,,0.00,0.000000,,2013-01-18 03:22:00,
2013-01-17 20:53:00,35.0,22.0,-100.00,SW,226,5.0,9.0,59,0.00,,,0.00,0.000000,,2013-01-18 03:53:00,
2013-01-17 21:02:00,35.0,22.0,-100.00,SW,226,5.0,9.0,59,0.00,,,0.00,0.000000,,2013-01-18 04:02:00,
2013-01-17 21:12:00,35.0,22.0,-100.00,SW,226,5.0,9.0,59,0.00,,,0.00,0.000000,,2013-01-18 04:12:00,
2013-01-17 21:22:00,35.0,22.0,-100.00,SW,226,5.0,9.0,59,0.00,,,0.00,0.000000,,2013-01-18 04:22:00,
2013-01-17 21:53:00,35.0,23.0,-100.00,SW,232,3.0,10.0,61,0.00,,,0.00,0.000000,,2013-01-18 04:53:00,
2013-01-17 22:03:00,35.0,23.0,-100.00,SW,232,3.0,10.0,61,0.00,,,0.00,0.000000,,2013-01-18 05:03:00,
2013-01-17 22:12:00,35.0,23.0,-100.00,SW,232,3.0,10.0,61,0.00,,,0.00,0.000000,,2013-01-18 05:12:00,
2013-01-17 22:22:00,35.0,23.0,-100.00,SW,232,3.0,10.0,61,0.00,,,0.00,0.000000,,2013-01-18 05:22:00,
2013-01-17 22:53:00,36.0,24.0,-100.00,WSW,244,6.0,8.0,61,0.00,,,0.00,0.000000,,2013-01-18 05:53:00,
2013-01-17 23:02:00,36.0,24.0,-100.00,WSW,244,6.0,8.0,61,0.00,,,0.00,0.000000,,2013-01-18 06:02:00,
2013-01-17 23:12:00,36.0,24.0,-100.00,WSW,244,6.0,8.0,61,0.00,,,0.00,0.000000,,2013-01-18 06:12:00,
2013-01-17 23:22:00,36.0,24.0,-100.00,WSW,244,6.0,8.0,61,0.00,,,0.00,0.000000,,2013-01-18 06:22:00,
2013-01-17 23:53:00,36.0,23.0,-100.00,WSW,244,7.0,12.0,59,0.00,,,0.00,0.000000,,2013-01-18 06:53:00,